User: anonymous   Login
Location: Caltech
(34.1382°N, 118.1253°W)
Time: 03:13:46
(UTC-07:00)
Language:

SO-50 - Orbit

View from above orbital plane
View from above orbital plane
View from above satellite
View from above satellite

Ground track
Ground track

The orbit data is extracted from the following two-line orbital elements,

1 27607U 02058C   16235.73686308  .00000059  00000-0  29252-4 0  9993
2 27607  64.5563 317.5116 0060878 202.2607 157.5852 14.75195716735087
Epoch (UTC): 22 August 2016 17:41:04
Eccentricity: 0.0060878
inclination: 64.5563°
perigee height: 602 km
apogee height: 687 km
right ascension of ascending node: 317.5116°
argument of perigee: 202.2607°
revolutions per day: 14.75195716
mean anomaly at epoch: 157.5852°
orbit number at epoch: 73508

The dashed part of the orbit path shows where the satellite is in the earth's shadow,  

DLR